EW5586 Weather Reports


Display with metric or nautical units.
time (UTC)temp
F
wind
direction
speed
MPH
gust
MPH
rain 1hr
in
rain 24hr
in
rain mn
in
humidity
%
barometer
mb
20260510065130 50 221 6.0 12.0 0.00 0.11 0.00 93 1006.2
20260510064624 50 210 7.0 12.0 0.00 0.11 0.00 93 1006.0
20260510064117 51 212 6.0 13.0 0.00 0.11 0.00 93 1006.0
20260510063612 51 215 6.0 13.0 0.00 0.11 0.00 93 1005.8
20260510063105 51 215 6.0 11.0 0.00 0.11 0.00 93 1005.8
20260510062053 51 181 6.0 12.0 0.00 0.11 0.00 93 1006.0
20260510061550 51 219 6.0 11.0 0.00 0.11 0.00 93 1005.9
20260510061050 50 225 7.0 11.0 0.00 0.11 0.00 93 1006.0
20260510060547 51 184 8.0 14.0 0.00 0.11 0.00 93 1005.7
20260510060047 51 217 8.0 14.0 0.00 0.11 0.00 93 1005.8
20260510055046 51 243 7.0 14.0 0.00 0.11 0.00 94 1006.0
20260510054046 50 221 9.0 14.0 0.00 0.11 0.00 94 1006.0
20260510053544 50 232 10.0 15.0 0.00 0.11 0.00 94 1005.9
20260510053044 50 215 10.0 17.0 0.00 0.11 0.00 95 1006.0
20260510052543 50 219 9.0 17.0 0.00 0.11 0.00 95 1005.8
20260510052044 49 198 9.0 14.0 0.00 0.11 0.00 94 1005.8
20260510051544 49 196 10.0 15.0 0.00 0.11 0.00 94 1005.7
20260510051043 49 219 10.0 15.0 0.00 0.11 0.00 94 1005.6
20260510050544 50 200 10.0 14.0 0.00 0.11 0.00 94 1005.6
20260510050043 50 224 9.0 12.0 0.00 0.11 0.00 94 1005.5
20260510045544 50 213 9.0 14.0 0.00 0.11 0.00 94 1005.5
20260510045043 50 229 10.0 14.0 0.00 0.11 0.00 94 1005.4
20260510044032 50 234 9.0 14.0 0.00 0.11 0.00 94 1005.3
20260510043526 50 231 9.0 14.0 0.00 0.11 0.00 94 1005.2
20260510043020 50 225 9.0 15.0 0.00 0.11 0.00 94 1005.2
20260510042513 51 216 9.0 15.0 0.00 0.11 0.00 94 1005.1
20260510042007 51 226 9.0 14.0 0.00 0.11 0.00 94 1005.0
20260510041501 51 221 9.0 14.0 0.00 0.11 0.00 94 1005.0
20260510040956 51 217 10.0 14.0 0.00 0.11 0.00 95 1005.0
20260510035944 50 215 9.0 13.0 0.01 0.11 0.11 94 1004.8
20260510035437 50 196 9.0 14.0 0.01 0.11 0.11 93 1004.7
20260510034931 51 205 9.0 14.0 0.01 0.11 0.11 94 1004.7
20260510034426 51 213 9.0 12.0 0.01 0.11 0.11 94 1004.8
20260510033919 51 207 9.0 14.0 0.02 0.11 0.11 94 1004.7
20260510033414 51 224 9.0 16.0 0.02 0.11 0.11 93 1004.6
20260510032907 51 219 8.0 16.0 0.04 0.11 0.11 94 1004.6
20260510032401 50 203 7.0 10.0 0.06 0.11 0.11 94 1004.4
20260510031855 50 208 5.0 10.0 0.10 0.11 0.11 93 1004.5
20260510031350 50 0 4.0 8.0 0.11 0.11 0.11 93 1004.4
20260510030337 50 218 6.0 10.0 0.10 0.10 0.10 93 1004.2
20260510025832 50 185 8.0 12.0 0.10 0.10 0.10 92 1004.3
20260510025325 50 182 10.0 14.0 0.10 0.10 0.10 92 1004.4
20260510024819 50 192 10.0 15.0 0.10 0.10 0.10 91 1004.5
20260510024314 50 178 10.0 15.0 0.09 0.09 0.10 90 1004.5
20260510023807 51 190 11.0 17.0 0.09 0.09 0.09 88 1004.7
20260510023302 53 196 11.0 19.0 0.08 0.08 0.09 88 1004.7
20260510022755 55 0 7.0 19.0 0.07 0.07 0.07 87 1004.7
20260510022249 55 230 7.0 15.0 0.04 0.04 0.04 86 1004.8
20260510021743 55 215 10.0 15.0 0.01 0.01 0.01 85 1004.4
20260510021240 55 217 11.0 18.0 0.00 0.00 0.00 82 1003.9
20260510020732 55 188 12.0 21.0 0.00 0.00 0.00 81 1003.7
20260510020226 55 175 13.0 21.0 0.00 0.00 0.00 81 1003.5
20260510015719 56 0 12.0 20.0 0.00 0.00 0.00 81 1003.4
20260510015213 56 175 12.0 18.0 0.00 0.00 0.00 81 1003.3
20260510014201 55 167 11.0 17.0 0.00 0.00 0.00 81 1002.8
20260510013149 56 164 12.0 18.0 0.00 0.00 0.00 80 1003.3
20260510012643 56 178 12.0 18.0 0.00 0.00 0.00 79 1003.4
20260510012143 56 171 13.0 19.0 0.00 0.00 0.00 80 1003.4
20260510011143 56 165 11.0 18.0 0.00 0.00 0.00 80 1003.4
20260510010644 56 167 13.0 22.0 0.00 0.00 0.00 78 1003.3
20260510005643 56 171 13.0 22.0 0.00 0.00 0.00 78 1003.2
20260510005143 57 146 12.0 22.0 0.00 0.00 0.00 78 1003.2
20260510004644 57 184 12.0 20.0 0.00 0.00 0.00 77 1003.1
20260510004143 56 155 11.0 18.0 0.00 0.00 0.00 77 1003.1
20260510002643 57 165 9.0 14.0 0.00 0.00 0.00 77 1003.2
20260510001643 57 170 10.0 17.0 0.00 0.00 0.00 76 1003.1
20260510001139 57 179 9.0 17.0 0.00 0.00 0.00 76 1003.2
20260510000139 57 168 7.0 14.0 0.00 0.00 0.00 76 1003.2
20260509235639 57 157 7.0 12.0 0.00 0.00 0.00 77 1003.4
20260509235139 57 165 7.0 12.0 0.00 0.00 0.00 76 1003.5
20260509234638 57 164 6.0 12.0 0.00 0.00 0.00 76 1003.5
20260509234137 57 162 7.0 12.0 0.00 0.00 0.00 76 1003.6
20260509233637 57 171 7.0 11.0 0.00 0.00 0.00 75 1003.6
20260509232637 57 164 6.0 10.0 0.00 0.00 0.00 75 1003.8
20260509232137 57 162 7.0 12.0 0.00 0.00 0.00 75 1004.0
20260509231637 57 180 8.0 13.0 0.00 0.00 0.00 74 1003.9
20260509231136 57 171 8.0 13.0 0.00 0.00 0.00 76 1003.9
20260509230635 56 167 8.0 13.0 0.00 0.00 0.00 77 1004.0
20260509230135 57 183 9.0 13.0 0.00 0.00 0.00 75 1004.0
20260509225635 57 0 10.0 16.0 0.00 0.00 0.00 74 1004.0
20260509224136 56 173 9.0 16.0 0.00 0.00 0.00 75 1004.0
20260509223635 57 181 8.0 16.0 0.00 0.00 0.00 74 1004.1
20260509223135 56 196 8.0 17.0 0.00 0.00 0.00 75 1004.0
20260509222631 57 142 7.0 17.0 0.00 0.00 0.00 75 1003.9
20260509222132 56 175 5.0 11.0 0.00 0.00 0.00 75 1003.8
20260509221632 56 177 7.0 11.0 0.00 0.00 0.00 74 1003.8
20260509221131 56 162 8.0 12.0 0.00 0.00 0.00 73 1003.7
20260509220631 57 225 9.0 15.0 0.00 0.00 0.00 72 1003.8
20260509220131 57 171 9.0 15.0 0.00 0.00 0.00 71 1003.7
20260509215631 57 181 9.0 16.0 0.00 0.00 0.00 72 1003.7
20260509215131 57 178 9.0 16.0 0.00 0.00 0.00 71 1003.8
20260509214136 57 184 10.0 16.0 0.00 0.00 0.00 70 1003.9
20260509213632 57 179 9.0 13.0 0.00 0.00 0.00 71 1004.1
20260509213131 57 180 10.0 15.0 0.00 0.00 0.00 71 1004.1
20260509212632 58 182 10.0 15.0 0.00 0.00 0.00 70 1004.1
20260509212131 58 170 11.0 20.0 0.00 0.00 0.00 69 1004.1
20260509211632 59 180 12.0 21.0 0.00 0.00 0.00 69 1004.0
20260509211131 58 197 14.0 24.0 0.00 0.00 0.00 69 1004.2
20260509210631 59 226 15.0 26.0 0.00 0.00 0.00 68 1004.2
20260509210131 59 144 13.0 26.0 0.00 0.00 0.00 69 1004.1
20260509205630 58 197 15.0 22.0 0.00 0.00 0.00 69 1004.2
20260509205124 59 178 17.0 29.0 0.00 0.00 0.00 68 1004.1
20260509204623 58 191 16.0 29.0 0.00 0.00 0.00 69 1004.3
20260509204123 58 153 16.0 24.0 0.00 0.00 0.00 69 1004.1
20260509203622 59 181 16.0 24.0 0.00 0.00 0.00 68 1004.3
20260509203123 59 182 15.0 24.0 0.00 0.00 0.00 68 1004.4
20260509202619 59 170 13.0 24.0 0.00 0.00 0.00 67 1004.3
20260509202118 59 199 11.0 20.0 0.00 0.00 0.00 66 1004.1
20260509201619 59 0 8.0 15.0 0.00 0.00 0.00 65 1004.1
20260509200617 60 0 6.0 9.0 0.00 0.00 0.00 60 1004.1
20260509195615 63 0 8.0 12.0 0.00 0.00 0.00 54 1004.2
20260509195115 63 0 8.0 13.0 0.00 0.00 0.00 51 1004.3
20260509194612 64 208 9.0 13.0 0.00 0.00 0.00 49 1004.3
20260509194113 64 0 8.0 14.0 0.00 0.00 0.00 50 1004.4
20260509193613 63 207 9.0 14.0 0.00 0.00 0.00 51 1004.5
20260509193112 63 234 9.0 12.0 0.00 0.00 0.00 52 1004.5
20260509192611 62 187 9.0 14.0 0.00 0.00 0.00 54 1004.4
20260509192110 61 218 10.0 14.0 0.00 0.00 0.00 56 1004.5
20260509191608 60 219 9.0 14.0 0.00 0.00 0.00 60 1004.6
20260509191109 60 205 8.0 12.0 0.00 0.00 0.00 62 1004.6
20260509190609 59 202 8.0 11.0 0.00 0.00 0.00 62 1004.7
20260509190107 60 201 8.0 10.0 0.00 0.00 0.00 63 1004.8
20260509185606 60 220 9.0 12.0 0.00 0.00 0.00 61 1004.9
20260509185105 61 210 10.0 15.0 0.00 0.00 0.00 59 1005.1
20260509184604 61 213 10.0 15.0 0.00 0.00 0.00 57 1005.2
20260509184105 61 229 9.0 12.0 0.00 0.00 0.00 56 1005.3
20260509183601 62 218 10.0 14.0 0.00 0.00 0.00 55 1005.2
20260509183100 61 221 10.0 14.0 0.00 0.00 0.00 55 1005.4
20260509182601 61 229 11.0 14.0 0.00 0.00 0.00 55 1005.4
20260509182101 60 219 11.0 15.0 0.00 0.00 0.00 57 1005.4
20260509181101 60 218 11.0 15.0 0.00 0.00 0.00 56 1005.5
20260509180056 61 208 12.0 15.0 0.00 0.00 0.00 52 1005.5
20260509175557 61 217 10.0 15.0 0.00 0.00 0.00 53 1005.6
20260509175056 61 211 9.0 15.0 0.00 0.00 0.00 53 1005.6
20260509174056 61 211 8.0 14.0 0.00 0.00 0.00 51 1005.7
20260509173557 62 194 7.0 14.0 0.00 0.00 0.00 47 1005.7
20260509173055 62 218 7.0 9.0 0.00 0.00 0.00 47 1005.8
20260509172556 62 0 8.0 11.0 0.00 0.00 0.00 48 1005.7
20260509172055 61 0 7.0 11.0 0.00 0.00 0.00 47 1005.8
20260509171551 61 0 7.0 11.0 0.00 0.00 0.00 49 1005.9
20260509171051 61 0 7.0 14.0 0.00 0.00 0.00 50 1006.1
20260509170549 60 210 7.0 14.0 0.00 0.00 0.00 50 1006.1
20260509165549 61 209 8.0 14.0 0.00 0.00 0.00 50 1006.4
20260509165050 60 202 8.0 12.0 0.00 0.00 0.00 50 1006.5
20260509164547 60 205 7.0 12.0 0.00 0.00 0.00 52 1006.6
20260509164047 60 212 6.0 12.0 0.00 0.00 0.00 53 1006.5
20260509163545 60 0 5.0 9.0 0.00 0.00 0.00 53 1006.6
20260509163044 59 0 4.0 6.0 0.00 0.00 0.00 56 1006.6
20260509162545 59 169 5.0 7.0 0.00 0.00 0.00 54 1006.7
20260509162043 60 0 7.0 10.0 0.00 0.00 0.00 52 1006.8
20260509161543 60 196 9.0 14.0 0.00 0.00 0.00 50 1007.0
20260509161044 60 217 9.0 14.0 0.00 0.00 0.00 49 1007.2
20260509160543 60 223 9.0 12.0 0.00 0.00 0.00 51 1007.1
20260509160043 59 221 9.0 12.0 0.00 0.00 0.00 52 1007.3
20260509155045 59 212 8.0 13.0 0.00 0.00 0.00 52 1007.6
20260509154545 58 217 7.0 13.0 0.00 0.00 0.00 52 1007.6
20260509154042 58 0 6.0 11.0 0.00 0.00 0.00 56 1007.7
20260509153042 0 0.0 0.0 0.00 0.00 0.00 1007.8
20260509152445 0 0.0 0.0 0.00 0.00 0.00 1007.9
20260509151943 0 0.0 0.0 0.00 0.00 0.00 1007.9
20260509151433 0 0.0 0.0 0.00 0.00 0.00 1008.0
20260509150927 0 0.0 0.0 0.00 0.00 0.00 1008.1
20260509150345 0 0.0 0.0 0.00 0.00 0.00 1008.1
20260509145843 0 0.0 0.0 0.00 0.00 0.00 1008.2
20260509145340 0 0.0 0.0 0.00 0.00 0.00 1008.2
20260509144747 0 0.0 0.0 0.00 0.00 0.00 1008.3
20260509144150 0 0.0 0.0 0.00 0.00 0.00 1008.4
20260509143133 0 0.0 0.0 0.00 0.00 0.00 1008.3
20260509142546 0 0.0 0.0 0.00 0.00 0.00 1008.4
20260509141436 0 0.0 0.0 0.00 0.00 0.00 1008.4
20260509140844 0 0.0 0.0 0.00 0.00 0.00 1008.6
20260509135150 0 0.0 0.0 0.00 0.00 0.00 1008.7
20260509134646 0 0.0 0.0 0.00 0.00 0.00 1008.7
20260509133547 0 0.0 0.0 0.00 0.00 0.00 1008.8
20260509133046 0 0.0 0.0 0.00 0.00 0.00 1008.9
20260509132540 0 0.0 0.0 0.00 0.00 0.00 1009.0
20260509131946 0 0.0 0.0 0.00 0.00 0.00 1009.0
20260509131436 0 0.0 0.0 0.00 0.00 0.00 1009.0
20260509130847 0 0.0 0.0 0.00 0.00 0.00 1009.0
20260509130345 0 0.0 0.0 0.00 0.00 0.00 1008.9
20260509125843 0 0.0 0.0 0.00 0.00 0.00 1008.9
20260509125338 0 0.0 0.0 0.00 0.00 0.00 1008.9
20260509124245 0 0.0 0.0 0.00 0.00 0.00 1008.9
20260509123151 0 0.0 0.0 0.00 0.00 0.00 1009.1
20260509121643 0 0.0 0.0 0.00 0.00 0.00 1009.1
20260509121141 0 0.0 0.0 0.00 0.00 0.00 1009.2
20260509120044 0 0.0 0.0 0.00 0.00 0.00 1009.3
20260509115538 0 0.0 0.0 0.00 0.00 0.00 1009.3
20260509115018 0 0.0 0.0 0.00 0.00 0.00 1009.4
20260509113845 0 0.0 0.0 0.00 0.00 0.00 1009.4
20260509112241 0 0.0 0.0 0.00 0.00 0.00 1009.3
20260509111136 0 0.0 0.0 0.00 0.00 0.00 1009.4
20260509110051 0 0.0 0.0 0.00 0.00 0.00 1009.3
20260509105041 0 0.0 0.0 0.00 0.00 0.00 1009.2
20260509104447 0 0.0 0.0 0.00 0.00 0.00 1009.1
20260509103941 0 0.0 0.0 0.00 0.00 0.00 1009.0
20260509103344 0 0.0 0.0 0.00 0.00 0.00 1009.0
20260509102842 0 0.0 0.0 0.00 0.00 0.00 1008.9
20260509102340 0 0.0 0.0 0.00 0.00 0.00 1008.9
20260509101242 0 0.0 0.0 0.00 0.00 0.00 1008.9
20260509100718 0 0.0 0.0 0.00 0.00 0.00 1009.0
20260509100136 0 0.0 0.0 0.00 0.00 0.00 1009.0
20260509095633 0 0.0 0.0 0.00 0.00 0.00 1008.9
20260509095047 0 0.0 0.0 0.00 0.00 0.00 1009.0
20260509094540 0 0.0 0.0 0.00 0.00 0.00 1008.9
20260509094036 0 0.0 0.0 0.00 0.00 0.00 1009.0
20260509093450 0 0.0 0.0 0.00 0.00 0.00 1009.1
20260509091850 0 0.0 0.0 0.00 0.00 0.00 1009.2
20260509090837 0 0.0 0.0 0.00 0.00 0.00 1009.2
20260509090249 0 0.0 0.0 0.00 0.00 0.00 1009.2
20260509085734 0 0.0 0.0 0.00 0.00 0.00 1009.2
20260509085230 42 0.0 0.0 0.00 0.00 0.00 69 1009.2
20260509084728 42 0 6.0 8.0 0.00 0.00 0.00 69 1009.2
20260509084214 42 0 6.0 8.0 0.00 0.00 0.00 69 1009.2
20260509083154 42 198 6.0 9.0 0.00 0.00 0.00 69 1009.2
20260509082654 42 196 6.0 9.0 0.00 0.00 0.00 69 1009.2
20260509082155 42 189 7.0 10.0 0.00 0.00 0.00 69 1009.3
20260509081654 42 0 7.0 12.0 0.00 0.00 0.00 69 1009.3
20260509081150 42 176 8.0 12.0 0.00 0.00 0.00 68 1009.4
20260509080650 42 193 7.0 11.0 0.00 0.00 0.00 69 1009.4
20260509080150 42 188 7.0 10.0 0.00 0.00 0.00 70 1009.4
20260509075650 42 166 7.0 10.0 0.00 0.00 0.00 69 1009.4
20260509075150 42 192 7.0 10.0 0.00 0.00 0.00 69 1009.4
20260509074649 42 166 6.0 10.0 0.00 0.00 0.00 69 1009.4
20260509074150 42 176 6.0 10.0 0.00 0.00 0.00 70 1009.5
20260509073651 42 197 7.0 11.0 0.00 0.00 0.00 69 1009.5
20260509073151 42 182 6.0 11.0 0.00 0.00 0.00 69 1009.5
20260509072150 42 182 5.0 9.0 0.00 0.00 0.00 70 1009.7
20260509071650 43 184 4.0 8.0 0.00 0.00 0.00 70 1009.5
20260509071150 43 0 4.0 6.0 0.00 0.00 0.00 70 1009.5
20260509070650 43 172 4.0 6.0 0.00 0.00 0.00 69 1009.5
20260509070150 43 161 4.0 7.0 0.00 0.00 0.00 68 1009.5
20260509065650 43 166 5.0 8.0 0.00 0.00 0.00 67 1009.5